Weather reports worldwide

Advertisment
Drumnadrochit, United Kingdom (99132): temperature & dewpoint: 20.03.2019 19:00:00 - 26.03.2019 19:00:00 (GMT)Drumnadrochit, United Kingdom (99132): precipitation: 20.03.2019 19:00:00 - 26.03.2019 19:00:00 (GMT)
Date & Time tt [°C] td [°C] rr [mm]
26.03.2019 19:00:00 10,4 5,7 0,0
26.03.2019 18:00:00 10,9 5,8 0,0
26.03.2019 17:00:00 11,2 5,8 0,0
26.03.2019 16:00:00 11,5 5,7 0,0
26.03.2019 15:00:00 11,0 6,1 0,0
26.03.2019 14:00:00 11,6 5,4 0,0
26.03.2019 13:00:00 11,5 4,8 0,0
26.03.2019 12:00:00 12,3 4,8 0,0
26.03.2019 11:00:00 10,6 4,6 0,0
26.03.2019 10:00:00 10,3 4,7 0,0
26.03.2019 09:00:00 8,8 4,3 0,0
26.03.2019 08:00:00 8,0 3,4 0,0
26.03.2019 07:00:00 6,5 2,5 0,0
26.03.2019 06:00:00 6,5 2,4 0,0
26.03.2019 05:00:00 6,3 2,5 0,0
26.03.2019 04:00:00 4,6 3,6 0,0
26.03.2019 03:00:00 3,8 2,6 0,0
26.03.2019 02:00:00 5,2 3,3 0,2
26.03.2019 01:00:00 5,0 4,1 0,0
26.03.2019 00:00:00 5,0 4,5 0,0
25.03.2019 23:00:00 5,7 5,1 0,4
25.03.2019 22:00:00 6,5 4,2 0,0
25.03.2019 21:00:00 5,9 3,8 0,0
25.03.2019 20:00:00 6,8 3,5 0,0
25.03.2019 19:00:00 8,1 3,8 0,0
25.03.2019 18:00:00 8,9 2,9 0,0
25.03.2019 17:00:00 9,4 2,3 0,0
25.03.2019 16:00:00 9,5 2,1 0,0
25.03.2019 15:00:00 9,9 2,5 0,0
25.03.2019 14:00:00 8,7 2,3 0,0
25.03.2019 13:00:00 8,5 1,2 0,0
25.03.2019 12:00:00 9,0 1,6 0,0
25.03.2019 11:00:00 8,5 1,8 0,0
25.03.2019 10:00:00 7,8 1,5 0,0
25.03.2019 09:00:00 7,7 0,8 0,0
25.03.2019 08:00:00 5,7 1,3 0,0
25.03.2019 07:00:00 4,4 0,7 0,0
25.03.2019 06:00:00 5,6 0,2 0,0
25.03.2019 05:00:00 4,5 0,7 0,0
25.03.2019 04:00:00 6,3 0,3 0,0
25.03.2019 03:00:00 5,1 1,3 0,0
25.03.2019 02:00:00 4,4 1,3 0,0
25.03.2019 01:00:00 5,7 1,3 0,0
25.03.2019 00:00:00 4,9 2,0 0,0
24.03.2019 23:00:00 4,6 2,6 0,6
24.03.2019 22:00:00 5,4 2,5 0,4
24.03.2019 21:00:00 4,4 1,7 0,0
24.03.2019 20:00:00 4,8 1,7 0,0
24.03.2019 19:00:00 4,7 1,4 0,0
24.03.2019 18:00:00 4,7 1,1 0,2
24.03.2019 17:00:00 6,4 0,9 0,0
24.03.2019 16:00:00 5,2 1,7 0,2
24.03.2019 15:00:00 5,0 2,6 1,2
24.03.2019 14:00:00 4,5 1,5 0,8
24.03.2019 13:00:00 6,7 2,4 0,2
24.03.2019 12:00:00 8,9 4,1 0,2
24.03.2019 11:00:00 7,2 3,4 0,0
24.03.2019 10:00:00 7,1 2,9 0,2
24.03.2019 09:00:00 6,0 2,9 0,8
24.03.2019 08:00:00 5,1 3,1 1,4
24.03.2019 07:00:00 3,4 1,6 2,6
24.03.2019 06:00:00 4,2 2,3 1,6
24.03.2019 05:00:00 4,7 1,9 0,0
24.03.2019 04:00:00 3,7 1,3 0,2
24.03.2019 03:00:00 4,5 1,5 0,0
24.03.2019 02:00:00 4,3 1,2 0,0
24.03.2019 01:00:00 3,3 1,1 0,2
24.03.2019 00:00:00 3,0 1,6 0,0
23.03.2019 23:00:00 2,9 1,4 0,0
23.03.2019 22:00:00 2,9 1,1 0,2
23.03.2019 21:00:00 4,4 1,7 0,0
23.03.2019 20:00:00 4,9 0,7 0,0
23.03.2019 19:00:00 5,1 0,8 0,0
23.03.2019 18:00:00 6,2 1,0 0,0
23.03.2019 17:00:00 7,2 1,5 0,0
23.03.2019 16:00:00 8,5 -1,0 0,0
23.03.2019 15:00:00 9,0 -2,3 0,0
23.03.2019 14:00:00 10,1 -0,8 0,0
23.03.2019 13:00:00 8,4 0,2 0,0
23.03.2019 12:00:00 9,6 -1,0 0,0
23.03.2019 11:00:00 8,7 -0,9 0,0
23.03.2019 10:00:00 7,2 0,0 0,0
23.03.2019 09:00:00 6,5 0,1 0,0
23.03.2019 08:00:00 4,5 1,0 0,2
23.03.2019 07:00:00 2,0 0,0 0,0
23.03.2019 06:00:00 1,3 0,0 0,0
23.03.2019 05:00:00 1,6 0,5 0,6
23.03.2019 04:00:00 2,9 0,0 0,4
23.03.2019 03:00:00 3,2 0,2 0,4
23.03.2019 02:00:00 3,2 -0,1 0,2
23.03.2019 01:00:00 3,8 -0,8 0,0
23.03.2019 00:00:00 3,9 -1,7 0,0
22.03.2019 23:00:00 4,3 -1,2 0,0
22.03.2019 22:00:00 4,5 -1,6 0,0
22.03.2019 21:00:00 5,0 -0,7 0,0
22.03.2019 20:00:00 4,0 1,2 0,0
22.03.2019 19:00:00 4,3 1,9 1,2
22.03.2019 18:00:00 5,5 2,4 0,4
22.03.2019 17:00:00 8,5 -0,2 0,0
22.03.2019 16:00:00 6,5 2,5 0,2
22.03.2019 15:00:00 9,4 3,4 0,0
22.03.2019 14:00:00 11,0 3,1 0,0
22.03.2019 13:00:00 10,1 6,3 0,2
22.03.2019 12:00:00 9,6 6,2 0,6
22.03.2019 11:00:00 10,4 7,6 1,2
22.03.2019 10:00:00 10,2 7,7 1,0
22.03.2019 09:00:00 10,4 7,4 0,4
22.03.2019 08:00:00 10,2 7,4 0,0
22.03.2019 07:00:00 10,4 7,1 0,0
22.03.2019 06:00:00 9,7 7,3 0,2
22.03.2019 05:00:00 9,9 6,9 0,0
22.03.2019 04:00:00 10,3 5,9 0,0
22.03.2019 03:00:00 10,2 5,5 0,0
22.03.2019 02:00:00 10,0 5,2 0,0
22.03.2019 01:00:00 10,8 6,3 0,0
22.03.2019 00:00:00 11,4 7,2 0,0
21.03.2019 23:00:00 12,0 7,7 0,0
21.03.2019 22:00:00 10,5 8,0 0,0
21.03.2019 21:00:00 10,1 7,5 0,0
21.03.2019 20:00:00 10,5 6,9 0,0
21.03.2019 19:00:00 11,2 6,5 0,0
21.03.2019 18:00:00 11,4 6,1 0,0
21.03.2019 17:00:00 12,1 5,9 0,0
21.03.2019 16:00:00 12,6 5,2 0,0
21.03.2019 15:00:00 13,1 3,9 0,0
21.03.2019 14:00:00 13,7 6,2 0,0
21.03.2019 13:00:00 13,0 5,0 0,0
21.03.2019 12:00:00 12,9 5,1 0,0
21.03.2019 11:00:00 12,6 7,5 0,0
21.03.2019 10:00:00 11,4 8,0 0,0
21.03.2019 09:00:00 10,7 7,5 0,0
21.03.2019 08:00:00 10,5 6,8 0,0
21.03.2019 07:00:00 10,3 8,9 0,0
21.03.2019 06:00:00 11,2 8,5 0,0
21.03.2019 05:00:00 11,0 8,5 0,0
21.03.2019 04:00:00 11,2 8,4 0,0
21.03.2019 03:00:00 11,3 8,6 0,0
21.03.2019 02:00:00 11,4 8,6 0,0
21.03.2019 01:00:00 11,3 8,7 0,0
21.03.2019 00:00:00 11,2 8,6 0,0
20.03.2019 23:00:00 11,6 8,6 0,0
20.03.2019 22:00:00 11,3 8,7 0,0
20.03.2019 21:00:00 11,2 8,4 0,0
20.03.2019 20:00:00 11,6 8,3 0,0
20.03.2019 19:00:00 12,1 10,0 0,2

tt = temperature
td = dewpoint
rr = precipitation

Next stations